Overview Statistics Trail Chart Weather Telemetry Raw packets
 

This is the latest recevied weather packets stored in our database for station/object W5ITZ. If no packets are shown the sender has not sent any weather packets the latest 10 day(s).

<< 98 99 100 101 102 103 104 >>
Time Temp. Humidity Pressure Rain* Wind** Luminosity Snow
1787488573 26.11° C 96% 1016.4 hPa 0 mm - 40 W/m² -
1787488269 26.11° C 96% 1016.1 hPa 0 mm - 33 W/m² -
1787487967 25.56° C 96% 1016 hPa 0 mm - 26 W/m² -
1787487663 25.56° C 96% 1016.1 hPa 0 mm - 20 W/m² -
1787487359 25.56° C 96% 1016 hPa 0 mm - 14 W/m² -
1787487056 26.11° C 96% 1016.1 hPa 0 mm - 9 W/m² -
1787486754 26.11° C 96% 1016 hPa 0 mm - 7 W/m² -
1787486449 26.11° C 96% 1016.2 hPa 0 mm - 3 W/m² -
1787486143 26.11° C 96% 1016.1 hPa 0 mm - 2 W/m² -
1787485839 26.11° C 96% 1016.1 hPa 0 mm - 1 W/m² -
1787485535 26.11° C 96% 1015.7 hPa 0 mm - 0 W/m² -
1787485230 26.11° C 96% 1015.7 hPa 0 mm - 0 W/m² -
1787484925 26.11° C 96% 1015.7 hPa 0 mm - 0 W/m² -
1787484622 26.11° C 96% 1015.7 hPa 0 mm - 0 W/m² -
1787484318 25.56° C 96% 1015.6 hPa 0 mm - 0 W/m² -
1787484014 25.56° C 96% 1015.4 hPa 0 mm - 0 W/m² -
1787483710 25.56° C 96% 1015.6 hPa 0 mm - 0 W/m² -
1787483407 25.56° C 96% 1015.5 hPa 0 mm - 0 W/m² -
1787483103 25.56° C 95% 1015.3 hPa 0 mm - 0 W/m² -
1787482797 25.56° C 95% 1015.2 hPa 0 mm - 0 W/m² -
1787482494 25.56° C 95% 1015.3 hPa 0 mm - 0 W/m² -
1787482190 25.56° C 95% 1015.4 hPa 0 mm - 0 W/m² -
1787481889 25.56° C 95% 1015.4 hPa 0 mm - 0 W/m² -
1787481584 25.56° C 95% 1015.4 hPa 0 mm - 0 W/m² -
1787481282 25.56° C 95% 1015.1 hPa 0 mm - 0 W/m² -

* Rain latest hour (hover to see other rain measurements)
** Current wind speed in m/s (hover to see current wind gust speed)